Tracking 23762 objects as of 20-Oct-2021
HD Live streaming from Space Station
objects crossing your sky now

INTELSAT 906

Track INTELSAT 906 now!
INTELSAT 906 is classified as:


NORAD ID: 27513
Int'l Code: 2002-041A
Perigee: 35,780.0 km
Apogee: 35,807.4 km
Inclination: 1.5 °
Period: 1,436.1 minutes
Semi major axis: 42164 km
RCS: 22.5892 m2 (large)
Launch date: September 6, 2002
Source: International Telecommunications Satellite Organization (ITSO)
Launch site: FRENCH GUIANA (FRGUI)

72 C-band, 22 Ku-band, broadcasting, business services, direct-to-home TV broadcasting, telecommunications, VSAT networks.
aabbcc
Your satellite tracking list
Your tracking list is empty




NASA's NSSDC Master Catalog

Two Line Element Set (TLE):
1 27513U 02041A   21292.88765250  .00000010  00000-0  00000-0 0  9993
2 27513   1.4682  93.2009 0003252 118.8026 200.3060  1.00271921 69966
Source of the keplerian elements: AFSPC